User: anonymous   Login
Location: Unspecified
(0.0000°N, 0.0000°E)
Time: 13:08:16
(UTC+02:00)
Language:

YAOGAN 3 - Orbit

View from above orbital plane
View from above orbital plane
View from above satellite
View from above satellite

Ground track
Ground track

The orbit data is extracted from the following two-line orbital elements,

1 32289U 07055A   17291.15210833 -.00000172  00000-0 -15439-4 0  9992
2 32289  98.0038 292.8341 0001090  79.2078 280.9253 14.80846387536930
Epoch (UTC): 18 October 2017 03:39:02
Eccentricity: 0.0001090
inclination: 98.0038°
perigee height: 626 km
apogee height: 627 km
right ascension of ascending node: 292.8341°
argument of perigee: 79.2078°
revolutions per day: 14.80846387
mean anomaly at epoch: 280.9253°
orbit number at epoch: 53693

The dashed part of the orbit path shows where the satellite is in the earth's shadow,  

DLR